Date,TemperatureHighF,TemperatureAvgF,TemperatureLowF,DewpointHighF,DewpointAvgF,DewpointLowF,HumidityHigh,HumidityAvg,HumidityLow,PressureMaxIn,PressureMinIn,WindSpeedMaxMPH,WindSpeedAvgMPH,GustSpeedMaxMPH,PrecipitationSumIn
2013-1-1,31.4,23.1,21.5,30.0,1.5,-99.9,94,71,82,30.11,29.99,15,-187,15,0.00
2013-1-2,25.9,16.4,14.0,17.0,-9.7,-99.9,86,59,60,30.28,30.09,8,-200,14,0.00
2013-1-3,32.8,19.0,9.0,21.0,-9.5,-99.9,91,57,61,30.28,30.17,14,-222,21,0.00
2013-1-4,31.6,21.1,26.5,23.0,-12.9,-99.9,80,51,63,30.26,30.18,18,-272,26,0.00
2013-1-5,33.3,33.2,33.2,25.0,25.0,25.0,72,72,71,30.19,30.17,3,2,7,0.00
2013-1-6,38.1,27.8,32.9,31.0,1.5,-99.9,88,61,70,30.22,30.01,12,-209,18,0.00
2013-1-7,34.4,21.8,22.9,28.0,-8.5,-99.9,90,60,70,30.48,30.23,11,-264,15,0.00
2013-1-8,43.8,26.4,19.6,31.0,0.7,-99.9,93,61,58,30.40,30.29,10,-201,15,0.00
2013-1-9,46.9,32.6,29.6,40.0,7.5,-99.9,88,62,68,30.50,30.24,15,-193,25,0.01
2013-1-10,40.3,29.6,27.4,31.0,5.1,-99.9,92,62,68,30.62,30.30,3,-188,7,0.00
2013-1-11,55.1,36.9,38.1,53.0,11.5,-99.9,96,67,64,30.30,29.97,7,-225,9,0.19
2013-1-12,62.0,53.5,50.4,56.0,45.2,-99.9,100,86,80,30.07,29.92,9,-41,11,0.00
2013-1-13,67.4,49.7,56.3,58.0,24.7,-99.9,95,64,70,29.92,29.83,14,-195,21,0.10
2013-1-14,57.3,28.5,29.3,55.0,1.2,-99.9,94,60,66,30.36,29.86,16,-218,28,0.02
2013-1-15,31.5,23.1,23.7,27.0,-2.3,-99.9,89,63,73,30.41,30.10,5,-210,6,0.00
2013-1-16,32.8,23.6,29.7,31.0,-3.0,-99.9,95,69,90,30.10,29.92,10,-250,14,0.00
2013-1-17,32.9,24.9,30.5,30.0,1.5,-99.9,90,69,84,30.21,30.05,11,-205,18,0.00
2013-1-18,31.4,21.4,16.9,26.0,-8.6,-99.9,83,50,57,30.52,30.20,17,-211,18,0.00
2013-1-19,51.3,37.7,31.6,25.0,5.8,-99.9,60,37,32,30.27,29.83,19,-121,28,0.07
2013-1-20,45.2,34.0,21.9,32.0,19.8,13.0,71,57,47,30.15,29.76,25,9,34,0.02
2013-1-21,24.7,20.3,11.3,19.0,12.1,1.0,85,70,55,30.12,29.94,17,6,28,0.00
2013-1-22,11.5,8.2,5.3,2.0,-1.0,-4.0,76,67,55,30.35,30.10,19,7,22,0.00
2013-1-23,15.1,10.3,3.7,10.0,1.7,-2.0,86,69,53,30.38,30.14,12,4,18,0.00
2013-1-24,21.0,14.5,8.5,12.0,6.5,-1.0,90,72,41,30.60,30.12,10,2,14,0.00
2013-1-25,18.8,14.3,8.6,15.0,9.6,3.0,87,82,70,30.57,30.08,5,1,10,0.00
2013-1-26,26.7,22.3,18.0,21.0,17.8,15.0,89,83,69,30.49,30.15,8,3,16,0.00
2013-1-27,30.8,22.2,9.2,21.0,15.6,7.0,91,77,60,30.59,30.36,3,0,5,0.03
2013-1-28,49.8,40.3,29.0,49.0,38.3,21.0,96,92,71,30.37,30.03,16,5,20,0.04
2013-1-29,65.1,56.3,49.8,56.0,51.6,49.0,97,85,67,30.06,29.76,14,4,19,0.00
2013-1-30,67.2,57.4,49.1,57.0,52.1,45.0,95,83,66,29.77,29.19,18,6,29,0.89
2013-1-31,48.5,27.2,22.1,44.0,21.1,13.0,94,78,58,29.87,29.20,26,11,40,0.01
2013-2-1,21.9,14.3,7.7,19.0,6.9,2.0,88,72,65,30.39,29.85,18,8,28,0.00
2013-2-2,23.2,16.1,5.9,21.0,12.0,2.0,92,84,77,30.38,30.02,6,2,13,0.00
2013-2-3,25.0,21.8,16.8,21.0,18.3,12.0,92,86,74,30.07,29.87,13,4,23,0.00
2013-2-4,26.2,21.2,16.0,23.0,16.9,11.0,93,83,72,30.12,29.90,12,3,14,0.00
2013-2-5,31.4,27.8,24.6,29.0,25.4,23.0,94,91,78,29.97,29.85,9,2,16,0.00
2013-2-6,32.1,26.8,17.8,26.0,21.6,15.0,93,81,60,30.36,29.97,8,3,14,0.00
2013-2-7,44.0,30.5,16.4,30.0,23.9,14.0,91,77,59,30.34,29.99,4,1,6,0.13
2013-2-8,38.1,31.6,25.0,36.0,27.9,21.0,93,86,80,30.18,29.82,17,6,28,0.14
2013-2-9,33.5,25.9,19.3,22.0,18.1,15.0,87,73,53,30.43,30.19,13,4,21,0.00
2013-2-10,48.5,33.5,17.4,30.0,21.1,14.0,88,64,38,30.39,29.98,7,1,12,0.00
2013-2-11,59.3,45.9,36.5,48.0,35.9,25.0,94,71,38,29.97,29.65,31,8,33,0.05
2013-2-12,42.0,34.9,27.7,28.0,25.2,23.0,83,68,56,30.07,29.92,16,5,28,0.00
2013-2-13,38.7,30.2,22.9,30.0,26.4,20.0,94,86,69,29.93,29.71,6,0,9,0.00
2013-2-14,41.9,34.5,27.1,35.0,30.1,25.0,93,84,69,29.98,29.89,24,3,26,0.17
2013-2-15,38.8,33.8,26.3,35.0,28.2,22.0,93,80,64,30.07,29.93,15,4,17,0.00
2013-2-16,29.0,24.5,20.5,22.0,16.9,12.0,90,74,53,30.07,29.95,10,2,16,0.00
2013-2-17,21.6,17.8,13.7,17.0,10.9,5.0,89,75,56,30.31,29.96,15,7,23,0.00
2013-2-18,42.9,26.8,7.4,31.0,16.0,3.0,83,65,48,30.35,29.92,7,2,10,0.00
2013-2-19,45.0,35.4,22.6,39.0,28.7,15.0,89,77,52,29.95,29.68,22,9,33,0.15
2013-2-20,22.0,19.1,17.1,17.0,12.4,9.0,86,75,62,30.26,29.96,20,9,32,0.00
2013-2-21,24.7,20.6,18.5,16.0,14.4,13.0,87,76,66,30.40,30.24,10,4,18,0.00
2013-2-22,36.7,30.3,20.9,34.0,25.9,15.0,94,84,66,30.32,30.02,5,1,8,0.01
2013-2-23,42.4,36.1,30.9,37.0,32.2,26.0,93,86,72,30.02,29.87,7,1,10,0.00
2013-2-24,30.6,28.4,25.3,26.0,23.1,21.0,91,80,69,30.17,29.88,10,3,15,0.00
2013-2-25,41.9,32.9,22.2,27.0,23.4,20.0,91,69,49,30.26,30.07,5,1,7,0.00
2013-2-26,39.3,34.6,30.5,36.0,28.5,22.0,95,79,58,30.08,29.59,10,2,13,0.84
2013-2-27,41.5,38.0,33.0,38.0,35.5,31.0,95,90,80,29.68,29.56,19,4,21,0.24
2013-2-28,34.0,32.5,30.7,32.0,29.8,28.0,93,90,86,29.83,29.63,11,6,18,0.03
2013-3-1,30.7,28.8,25.3,29.0,25.0,21.0,93,86,79,30.00,29.83,9,4,15,0.00
2013-3-2,28.6,25.6,23.9,23.0,21.3,20.0,90,83,72,29.99,29.94,12,4,15,0.00
2013-3-3,26.3,24.3,22.2,23.0,19.3,17.0,91,81,68,30.05,29.96,12,6,17,0.00
2013-3-4,36.5,27.2,19.2,20.0,18.0,15.0,87,69,51,30.16,30.05,18,4,19,0.00
2013-3-5,45.3,32.7,19.7,27.0,18.8,15.0,87,60,32,30.13,29.68,9,2,14,0.00
2013-3-6,43.7,35.3,30.7,33.0,29.3,26.0,95,80,62,30.12,29.68,7,2,12,0.37
2013-3-7,38.3,34.0,31.4,31.0,29.5,27.0,93,83,66,30.31,30.12,9,4,17,0.02
2013-3-8,36.0,31.6,28.6,29.0,26.4,24.0,86,81,72,30.44,30.31,10,4,14,0.01
2013-3-9,53.2,38.4,21.9,33.0,27.0,20.0,93,67,41,30.44,30.19,4,1,6,0.00
2013-3-10,69.5,54.3,41.5,41.0,31.1,25.0,53,42,30,30.19,29.98,7,2,11,0.00
2013-3-11,62.7,55.5,45.8,48.0,37.0,33.0,90,52,36,29.98,29.67,12,3,18,0.21
2013-3-12,45.4,38.4,34.6,43.0,33.5,28.0,92,83,73,30.00,29.75,15,6,21,0.02
2013-3-13,35.9,30.6,26.6,29.0,25.3,19.0,92,81,60,30.16,29.93,20,7,27,0.00
2013-3-14,36.9,28.8,22.4,21.0,18.8,16.0,78,67,48,30.25,30.16,17,7,24,0.00
2013-3-15,48.6,37.6,26.7,36.0,27.2,19.0,86,67,55,30.17,29.84,15,5,24,0.00
2013-3-16,39.5,36.1,31.3,38.0,34.4,29.0,95,93,88,29.98,29.63,9,2,14,0.05
2013-3-17,36.2,31.2,27.5,29.0,24.6,23.0,91,77,62,30.21,29.98,7,1,8,0.00
2013-3-18,39.6,33.4,29.5,37.0,30.1,23.0,95,87,74,30.18,29.71,5,2,9,0.47
2013-3-19,43.0,36.5,29.4,41.0,26.4,18.0,95,68,44,29.98,29.71,27,10,36,0.01
2013-3-20,37.3,30.0,24.6,22.0,18.0,15.0,76,62,43,29.99,29.84,20,7,30,0.00
2013-3-21,26.9,22.8,17.1,20.0,12.9,6.0,85,67,50,29.95,29.88,15,6,18,0.00
2013-3-22,34.1,27.5,22.9,21.0,19.3,17.0,84,72,59,30.05,29.93,14,6,19,0.00
2013-3-23,45.3,32.2,19.3,25.0,21.2,16.0,90,67,41,30.08,30.01,10,2,16,0.00
2013-3-24,43.0,32.2,25.2,30.0,22.6,-99.9,91,71,49,30.02,29.53,7,-9,12,0.00
2013-3-25,36.3,32.8,30.3,34.0,31.2,29.0,95,93,88,29.76,29.45,8,2,11,0.52
2013-3-26,39.4,34.4,31.1,32.0,30.5,28.0,95,86,75,30.10,29.77,12,4,15,0.26
2013-3-27,41.4,35.8,31.3,31.0,28.3,25.0,94,76,54,30.18,30.08,15,6,23,0.01
2013-3-28,41.4,37.5,33.9,31.0,28.8,27.0,81,71,60,30.28,30.15,11,5,18,0.00
2013-3-29,51.5,42.3,33.8,32.0,27.3,23.0,83,58,34,30.29,30.17,10,3,17,0.00
2013-3-30,54.6,41.0,23.7,29.0,23.4,20.0,86,54,30,30.27,30.04,7,1,13,0.00
2013-3-31,49.4,44.9,40.6,45.0,36.1,22.0,93,73,45,30.03,29.72,11,2,12,0.07
2013-4-1,45.8,39.8,31.7,43.0,27.8,14.0,92,65,35,30.03,29.70,19,7,29,0.01
2013-4-2,37.4,30.7,24.8,19.0,15.4,13.0,72,55,40,30.22,30.03,16,4,20,0.00
2013-4-3,38.2,31.4,25.4,21.0,14.3,10.0,71,51,33,30.43,30.21,14,4,23,0.00
2013-4-4,53.0,35.4,17.1,20.0,15.4,11.0,81,49,23,30.42,30.00,5,1,8,0.00
2013-4-5,52.8,43.3,33.2,32.0,24.2,18.0,63,48,37,30.18,29.95,12,4,21,0.00
2013-4-6,57.4,42.3,21.3,25.0,18.8,15.0,85,45,20,30.30,30.03,5,1,9,0.00
2013-4-7,70.6,61.1,50.1,47.0,39.7,22.0,65,46,33,30.02,29.86,21,7,26,0.00
2013-4-8,73.1,60.6,46.7,52.0,46.2,40.0,80,61,43,30.02,29.86,19,3,23,0.00
2013-4-9,79.4,68.9,57.7,58.0,53.9,50.0,81,60,44,30.07,29.87,16,4,23,0.00
2013-4-10,79.4,68.9,58.4,64.0,57.7,52.0,95,69,53,29.91,29.75,13,5,27,0.41
2013-4-11,73.6,64.0,55.6,60.0,57.2,52.0,96,80,61,29.86,29.56,10,2,19,0.01
2013-4-12,61.2,55.0,43.9,59.0,49.0,34.0,96,81,61,29.84,29.46,24,6,26,0.36
2013-4-13,51.3,43.2,37.2,36.0,33.6,32.0,82,70,53,30.03,29.84,17,5,26,0.00
2013-4-14,61.9,47.5,31.1,40.0,33.8,27.0,87,62,42,30.16,30.01,11,1,11,0.00
2013-4-15,65.8,59.5,54.4,52.0,46.1,37.0,71,62,52,30.07,29.97,9,3,14,0.00
2013-4-16,77.5,63.3,53.3,61.0,54.5,48.0,95,74,55,30.16,30.00,14,4,25,0.65
2013-4-17,67.3,57.8,50.5,57.0,52.6,48.0,96,83,67,30.22,30.07,6,1,8,0.00
2013-4-18,83.8,70.8,58.1,63.0,58.3,55.0,91,67,44,30.09,29.72,11,4,21,0.00
2013-4-19,70.3,58.0,43.1,61.0,48.3,30.0,88,71,60,29.84,29.44,16,7,33,0.16
2013-4-20,45.6,40.1,34.2,31.0,27.0,23.0,82,60,45,30.41,29.84,17,7,26,0.00
2013-4-21,53.7,40.5,25.3,29.0,23.8,21.0,87,54,30,30.61,30.42,6,1,9,0.00
2013-4-22,62.4,50.1,39.1,39.0,29.3,23.0,60,46,30,30.47,30.27,7,1,10,0.00
2013-4-23,70.8,55.0,37.6,44.0,36.5,30.0,80,53,32,30.27,29.95,6,1,12,0.00
2013-4-24,68.4,54.7,37.7,56.0,44.9,34.0,91,71,50,30.16,29.73,30,5,32,0.30
2013-4-25,55.5,44.0,31.9,39.0,33.6,30.0,94,70,40,30.36,30.16,18,4,23,0.01
2013-4-26,60.3,47.0,32.8,39.0,33.6,29.0,96,65,33,30.48,30.36,9,1,9,0.00
2013-4-27,73.1,55.6,34.5,43.0,35.7,29.0,86,51,27,30.40,30.14,4,1,7,0.00
2013-4-28,60.3,55.2,51.6,56.0,48.1,41.0,94,78,52,30.14,29.91,5,1,9,0.30
2013-4-29,63.3,56.5,51.1,57.0,53.0,48.0,93,88,79,30.01,29.92,7,1,8,0.05
2013-4-30,73.5,61.3,50.9,58.0,53.7,50.0,97,78,55,30.16,30.01,4,1,9,0.01
2013-5-1,75.7,63.2,51.5,57.0,49.8,37.0,90,65,39,30.28,30.16,6,1,8,0.00
2013-5-2,77.5,63.5,49.8,51.0,39.8,34.0,64,44,22,30.33,30.17,6,1,10,0.00
2013-5-3,73.8,62.2,49.4,49.0,42.2,37.0,67,49,33,30.23,30.12,8,2,16,0.00
2013-5-4,69.9,58.9,45.9,46.0,41.3,36.0,71,53,36,30.17,30.06,6,1,9,0.00
2013-5-5,73.4,60.1,47.3,43.0,36.8,24.0,77,47,18,30.13,29.99,7,2,10,0.00
2013-5-6,69.0,58.7,45.3,54.0,47.1,36.0,83,66,51,30.07,29.97,5,1,11,0.00
2013-5-7,67.6,60.2,55.7,59.0,55.3,52.0,91,84,67,30.01,29.93,6,1,12,0.15
2013-5-8,72.4,62.7,52.6,56.0,52.5,47.0,96,72,41,29.97,29.87,5,1,8,0.15
2013-5-9,76.8,64.4,53.8,57.0,53.1,47.0,93,70,38,29.97,29.88,9,2,13,0.00
2013-5-10,75.0,62.5,56.5,64.0,57.9,52.0,95,85,65,29.97,29.78,9,2,22,0.73
2013-5-11,60.1,55.7,49.4,59.0,53.1,46.0,96,90,82,29.82,29.75,9,3,12,0.11
2013-5-12,51.0,46.2,36.5,48.0,33.3,28.0,91,63,43,30.07,29.82,19,7,23,0.00
2013-5-13,51.0,42.6,32.4,31.0,27.0,22.0,81,56,35,30.19,30.06,14,4,18,0.00
2013-5-14,62.0,47.1,27.8,44.0,35.1,25.0,91,66,42,30.20,29.90,6,1,10,0.00
2013-5-15,84.1,68.8,51.6,64.0,55.3,41.0,79,63,47,29.90,29.70,16,4,28,0.00
2013-5-16,77.5,69.3,61.2,62.0,57.3,48.0,94,69,36,29.93,29.74,8,3,14,0.30
2013-5-17,81.0,68.0,57.2,64.0,57.9,48.0,96,73,42,30.08,29.93,6,1,8,0.00
2013-5-18,82.7,69.1,55.3,63.0,55.7,44.0,83,64,44,30.10,29.99,4,0,5,0.00
2013-5-19,76.8,68.0,58.7,66.0,61.8,57.0,94,81,68,30.07,29.93,4,1,6,0.00
2013-5-20,85.7,73.0,59.7,71.0,65.3,58.0,96,78,57,30.00,29.87,5,1,10,0.00
2013-5-21,85.9,75.0,64.8,72.0,67.1,62.0,96,78,56,29.92,29.78,7,2,18,0.03
2013-5-22,85.6,71.8,62.9,69.0,63.9,60.0,91,77,52,29.85,29.73,6,2,16,0.00
2013-5-23,74.1,63.7,48.0,65.0,60.4,46.0,96,89,68,29.88,29.73,13,2,22,0.88
2013-5-24,47.7,43.9,38.7,46.0,37.9,33.0,94,80,63,30.30,29.89,11,3,18,0.02
2013-5-25,60.8,46.9,32.2,40.0,34.9,30.0,93,67,39,30.34,30.24,7,2,16,0.00
2013-5-26,66.9,52.6,38.0,43.0,36.3,32.0,79,57,35,30.30,30.21,5,1,13,0.00
2013-5-28,80.1,72.6,59.6,69.0,64.0,58.0,95,75,61,30.07,29.96,8,1,15,0.11
2013-5-29,85.0,75.2,67.3,67.0,62.7,60.0,82,66,51,30.05,29.98,15,2,16,0.00
2013-5-30,88.1,76.1,63.2,70.0,64.7,59.0,88,69,49,30.15,30.04,5,0,12,0.00
2013-5-31,87.5,75.8,64.6,70.0,65.0,62.0,95,71,50,30.08,29.94,8,1,11,0.00
2013-6-1,84.9,76.1,67.2,71.0,66.6,62.0,90,73,56,29.98,29.76,11,2,17,0.00
2013-6-2,78.7,72.8,66.1,67.0,63.7,59.0,92,74,57,29.83,29.75,6,2,16,0.03
2013-6-3,67.6,61.4,51.6,60.0,53.4,40.0,89,76,60,30.05,29.83,4,1,8,0.00
2013-6-4,73.9,58.8,38.4,51.0,45.7,37.0,96,65,43,30.17,30.05,4,0,7,0.00
2013-6-5,82.3,67.6,50.3,65.0,55.4,45.0,83,66,51,30.13,29.89,3,0,5,0.00
2013-6-6,70.2,65.6,63.0,67.0,63.2,60.0,96,92,75,29.91,29.73,4,1,6,1.38
2013-6-7,65.5,61.3,57.0,62.0,59.4,54.0,97,93,84,29.84,29.73,3,0,8,0.00
2013-6-8,73.5,62.7,55.5,59.0,55.8,53.0,94,79,59,30.09,29.84,2,0,5,0.00
2013-6-9,83.6,69.8,53.9,66.0,61.2,53.0,96,76,52,30.15,29.98,4,0,4,0.00
2013-6-10,75.9,69.4,64.5,70.0,65.9,60.0,95,89,74,29.99,29.74,3,0,10,0.21
2013-6-11,77.8,68.4,60.5,69.0,63.5,58.0,96,85,64,29.86,29.76,8,0,12,0.10
2013-6-12,83.2,74.0,65.3,72.0,67.5,62.0,93,81,64,29.88,29.70,4,0,10,0.00
2013-6-13,72.3,65.8,59.0,71.0,62.8,55.0,96,90,80,29.77,29.48,7,1,18,0.68
2013-6-14,75.5,62.2,54.3,61.0,56.5,53.0,95,83,54,30.04,29.77,6,0,8,0.00
2013-6-15,79.1,65.8,48.3,60.0,54.3,47.0,97,70,40,30.12,29.98,1,0,8,0.01
2013-6-16,73.9,67.0,61.2,68.0,63.1,57.0,94,87,74,29.99,29.88,7,1,15,0.27
2013-6-17,83.8,73.1,63.7,70.0,64.7,62.0,97,77,51,29.95,29.86,2,0,6,0.00
2013-6-18,80.4,68.1,61.8,70.0,63.3,58.0,95,85,68,29.93,29.81,2,0,9,0.72
2013-6-19,77.5,65.1,54.2,58.0,53.7,49.0,92,70,39,30.12,29.93,5,0,9,0.00
2013-6-20,83.3,66.4,48.0,61.0,54.9,47.0,96,70,41,30.22,30.13,4,0,4,0.00
2013-6-21,87.6,70.4,52.6,66.0,59.1,51.0,96,71,41,30.23,30.12,1,0,4,0.00
2013-6-22,88.6,74.8,59.6,73.0,66.2,57.0,94,76,56,30.17,30.03,3,0,6,0.00
2013-6-23,88.7,77.7,65.8,74.0,69.3,64.0,96,77,52,30.11,30.00,5,0,6,0.00
2013-6-24,90.1,77.7,65.0,72.0,67.7,63.0,95,73,51,30.10,29.96,6,0,9,0.00
2013-6-25,89.0,75.7,65.7,74.0,68.2,64.0,95,79,59,30.01,29.84,8,1,18,0.41
2013-6-26,84.9,72.9,65.1,74.0,68.2,64.0,97,86,64,29.93,29.77,4,0,10,1.97
2013-6-27,77.8,70.0,66.0,72.0,68.0,64.0,97,93,80,29.77,29.60,4,0,10,0.41
2013-6-28,78.6,68.3,61.8,71.0,65.7,60.0,97,91,77,29.63,29.45,7,0,10,0.20
2013-6-29,81.0,68.9,58.9,67.0,63.3,58.0,98,83,61,29.66,29.52,5,0,7,0.01
2013-6-30,85.3,70.2,60.6,71.0,65.6,60.0,98,86,60,29.82,29.66,3,0,9,0.16
2013-7-1,79.6,70.7,65.0,70.0,66.7,63.0,97,87,72,29.92,29.78,3,0,6,0.18
2013-7-2,85.4,74.1,65.4,75.0,69.4,65.0,98,86,67,30.02,29.90,2,0,4,0.21
2013-7-3,86.0,75.3,67.5,75.0,69.3,65.0,93,82,63,30.13,30.02,3,0,4,0.00
2013-7-4,87.9,76.1,68.6,74.0,70.3,67.0,96,83,60,30.18,30.07,2,0,5,0.09
2013-7-5,84.3,75.2,67.2,74.0,69.9,66.0,97,84,67,30.13,30.05,2,0,8,0.01
2013-7-6,89.5,76.9,68.3,76.0,71.3,67.0,98,84,61,30.14,29.98,2,0,4,0.02
2013-7-7,79.0,72.5,67.5,73.0,69.0,66.0,96,89,77,30.07,29.97,2,0,4,0.05
2013-7-8,84.9,72.8,61.9,73.0,67.5,61.0,97,84,65,30.09,30.01,2,0,7,0.00
2013-7-9,84.8,72.5,67.5,78.0,70.1,66.0,97,92,77,30.08,29.93,4,0,10,1.56
2013-7-10,86.3,71.5,64.3,80.0,69.8,64.0,98,94,80,29.98,29.78,9,1,19,2.10
2013-7-11,77.2,69.0,63.1,67.0,63.1,58.0,98,83,62,29.97,29.86,3,0,6,0.01
2013-7-12,75.0,66.0,57.4,68.0,62.1,56.0,95,87,73,30.09,29.97,2,0,5,0.02
2013-7-13,84.2,73.0,61.0,72.0,66.3,60.0,96,81,63,30.19,30.07,2,0,4,0.00
2013-7-14,89.9,78.2,68.8,75.0,70.2,67.0,94,78,57,30.25,30.18,3,0,7,0.00
2013-7-15,92.8,79.0,67.1,75.0,71.3,66.0,97,79,53,30.30,30.20,1,0,3,0.00
2013-7-16,93.8,77.8,69.8,80.0,72.7,68.0,96,85,58,30.28,30.20,2,0,7,0.00
2013-7-17,91.6,78.9,70.3,80.0,74.9,69.0,98,88,66,30.26,30.12,2,0,4,0.01
2013-7-18,93.7,81.9,70.1,81.0,75.4,69.0,98,82,58,30.14,29.98,2,0,7,0.00
2013-7-19,92.2,78.9,70.4,78.0,73.2,68.0,96,84,59,29.99,29.82,4,0,10,0.01
2013-7-20,83.0,73.6,68.0,76.0,69.9,66.0,97,88,73,29.89,29.81,5,0,7,0.02
2013-7-21,87.6,73.9,67.0,76.0,69.8,66.0,97,88,65,29.94,29.86,1,0,3,0.02
2013-7-22,81.0,71.4,64.1,75.0,69.3,63.0,98,93,80,29.91,29.74,0,0,3,0.15
2013-7-23,84.1,71.4,63.6,72.0,67.0,63.0,97,87,60,29.75,29.67,3,0,22,0.05
2013-7-24,72.8,64.8,58.6,64.0,57.8,53.0,97,79,60,29.97,29.73,7,1,9,0.00
2013-7-25,77.1,64.4,51.8,59.0,54.5,50.0,95,72,48,30.07,29.97,2,0,7,0.00
2013-7-26,82.9,67.2,50.2,64.0,57.6,49.0,97,74,49,30.08,29.97,2,0,4,0.00
2013-7-27,76.5,65.8,58.7,71.0,63.4,57.0,96,92,79,29.98,29.82,4,0,5,0.75
2013-7-28,77.2,67.2,55.4,65.0,61.2,53.0,97,83,57,30.01,29.82,2,0,9,0.07
2013-7-29,75.6,62.8,51.1,61.0,55.1,50.0,95,78,54,30.18,30.01,1,0,5,0.00
2013-7-30,80.7,65.4,51.1,64.0,57.7,50.0,98,78,54,30.23,30.13,3,0,6,0.00
2013-7-31,79.4,66.3,56.1,70.0,62.3,55.0,97,87,66,30.14,29.94,1,0,2,0.05
2013-8-1,81.2,70.7,63.0,68.0,63.7,59.0,97,80,56,29.93,29.84,2,0,7,0.02
2013-8-2,78.0,68.1,57.3,64.0,59.5,55.0,97,76,49,29.97,29.88,3,0,8,0.00
2013-8-3,78.4,68.2,57.2,69.0,63.1,54.0,96,84,65,29.97,29.90,3,0,7,0.21
2013-8-4,75.4,63.6,51.7,62.0,55.7,51.0,97,78,53,30.08,29.97,3,0,9,0.00
2013-8-5,76.1,60.9,50.1,61.0,54.8,49.0,98,82,48,30.12,30.00,0,0,3,0.00
2013-8-6,81.9,68.0,53.9,64.0,58.6,52.0,97,75,46,30.01,29.95,2,0,4,0.00
2013-8-7,86.7,69.9,60.7,75.0,65.9,59.0,97,88,66,29.96,29.89,9,0,10,0.31
2013-8-8,86.3,74.1,65.6,77.0,70.5,65.0,98,89,72,29.95,29.87,3,0,4,0.01
2013-8-9,79.1,73.0,64.4,74.0,70.4,63.0,97,91,77,29.98,29.85,1,0,5,0.04
2013-8-10,83.8,71.1,60.4,69.0,64.3,59.0,97,80,58,30.07,29.99,1,0,6,0.00
2013-8-11,86.0,70.5,60.0,71.0,63.5,57.0,96,79,58,30.10,29.99,2,0,4,0.03
2013-8-12,86.5,73.4,61.7,72.0,66.5,61.0,98,81,55,30.03,29.85,1,0,3,0.00
2013-8-13,80.2,70.0,55.1,71.0,63.2,50.0,96,80,60,29.95,29.76,7,1,12,0.02
2013-8-14,69.9,57.9,48.5,56.0,51.3,47.0,95,80,59,30.14,29.95,2,0,9,0.00
2013-8-15,76.9,60.5,44.3,59.0,50.6,43.0,97,74,42,30.20,30.09,3,0,6,0.00
2013-8-16,83.6,65.4,50.6,59.0,54.9,49.0,96,72,42,30.16,30.10,1,0,4,0.00
2013-8-17,79.0,65.6,53.0,61.0,56.3,52.0,97,75,47,30.23,30.15,3,0,5,0.00
2013-8-18,74.3,66.4,61.4,66.0,62.1,57.0,96,86,75,30.20,30.12,1,0,2,0.06
2013-8-19,81.6,69.3,59.5,70.0,65.3,58.0,98,88,61,30.13,30.04,1,0,3,0.72
2013-8-20,86.6,69.8,55.6,69.0,61.8,55.0,98,79,49,30.17,30.08,1,0,3,0.00
2013-8-21,88.3,71.1,57.5,70.0,64.1,57.0,98,81,50,30.17,30.03,1,0,3,0.00
2013-8-22,86.6,73.5,63.8,73.0,68.5,62.0,94,85,64,30.07,29.94,2,0,7,0.09
2013-8-23,83.9,71.7,65.6,70.0,64.5,56.0,98,80,55,30.12,29.95,3,0,5,0.04
2013-8-24,83.2,68.6,54.2,67.0,59.6,53.0,96,75,49,30.27,30.12,3,0,5,0.00
2013-8-25,85.2,69.9,54.5,67.0,61.3,53.0,97,77,49,30.34,30.21,2,0,3,0.00
2013-8-26,87.1,72.7,60.1,69.0,63.8,58.0,93,75,54,30.23,30.00,2,0,7,0.00
2013-8-27,83.3,74.2,69.3,73.0,70.0,67.0,96,87,71,30.00,29.90,1,0,4,0.01
2013-8-28,82.9,74.1,70.3,77.0,72.1,69.0,98,93,79,29.91,29.78,1,0,6,0.47
2013-8-29,86.9,75.4,66.0,73.0,69.4,64.0,97,83,59,30.00,29.88,2,0,5,0.00
2013-8-30,88.6,74.9,62.1,75.0,68.9,61.0,98,83,61,29.97,29.80,0,0,0,0.00
2013-8-31,88.5,76.2,68.8,74.0,70.6,68.0,96,84,59,29.82,29.73,0,0,0,0.00
2013-9-1,81.4,72.7,68.3,75.0,70.1,67.0,97,91,75,29.80,29.73,0,0,0,0.00
2013-9-2,84.6,73.3,63.3,75.0,69.2,62.0,97,88,64,29.82,29.70,3,0,8,0.09
2013-9-3,74.4,64.0,54.7,62.0,58.4,53.0,98,84,58,30.02,29.80,4,0,8,0.00
2013-9-4,79.6,64.7,49.3,63.0,56.6,49.0,98,78,51,30.12,30.02,4,0,4,0.01
2013-9-5,76.3,65.2,54.2,61.0,55.6,47.0,95,73,47,30.19,30.05,4,0,8,0.00
2013-9-6,76.4,59.3,42.5,54.0,46.9,41.0,97,68,37,30.26,30.12,1,0,4,0.00
2013-9-7,83.3,64.1,43.3,59.0,52.1,42.0,97,70,35,30.12,29.94,2,0,5,0.00
2013-9-8,82.4,70.9,62.6,69.0,63.1,58.0,88,76,63,30.03,29.89,3,0,8,0.00
2013-9-9,83.9,68.1,56.1,75.0,63.9,54.0,96,87,71,30.07,29.97,1,0,5,0.02
2013-9-10,92.1,78.5,68.4,78.0,72.6,67.0,97,83,63,30.09,30.02,2,0,5,0.00
2013-9-11,92.9,76.8,71.3,77.0,71.8,68.0,96,86,57,30.10,29.97,2,0,7,0.03
2013-9-12,76.8,69.6,60.2,72.0,67.7,59.0,97,93,82,29.96,29.77,2,0,19,0.43
2013-9-13,66.6,57.8,51.3,60.0,53.2,47.0,97,85,66,30.02,29.79,6,0,18,0.19
2013-9-14,68.5,55.3,44.8,49.0,46.6,43.0,93,75,48,30.17,30.02,2,0,6,0.00
2013-9-15,70.3,56.8,41.7,56.0,49.9,41.0,97,80,56,30.19,30.06,4,0,5,0.00
2013-9-16,71.7,60.1,51.2,60.0,54.5,49.0,96,83,58,30.30,30.07,4,0,8,0.27
2013-9-17,70.7,56.4,43.5,54.0,48.3,43.0,97,76,48,30.39,30.25,3,0,4,0.01
2013-9-18,75.5,59.3,43.6,58.0,50.5,41.0,93,74,52,30.25,30.10,2,0,4,0.00
2013-9-19,79.7,66.9,59.3,66.0,61.1,56.0,96,83,59,30.12,30.00,2,0,3,0.00
2013-9-20,80.8,68.7,57.9,72.0,65.4,57.0,97,89,72,30.02,29.80,3,0,4,0.00
2013-9-21,68.3,62.9,55.6,67.0,61.6,55.0,97,95,92,29.80,29.66,3,0,8,1.19
2013-9-22,62.7,55.8,51.4,55.0,50.1,47.0,98,82,60,30.02,29.78,2,0,9,0.01
2013-9-23,59.9,51.7,40.9,49.0,45.7,39.0,93,81,60,30.15,30.01,3,0,4,0.00
2013-9-24,69.3,52.0,37.9,53.0,44.1,37.0,97,78,46,30.14,29.98,2,0,4,0.00
2013-9-25,75.8,58.0,43.1,56.0,49.8,42.0,97,77,49,29.99,29.88,2,0,5,0.00
2013-9-26,77.8,61.9,47.5,58.0,51.4,47.0,97,72,42,30.06,29.93,2,0,5,0.00
2013-9-27,75.9,59.5,47.0,57.0,51.8,46.0,97,78,49,30.18,30.06,3,0,4,0.00
2013-9-28,77.2,60.6,47.8,60.0,53.3,47.0,97,79,52,30.24,30.14,2,0,5,0.00
2013-9-29,77.3,61.4,49.2,61.0,54.8,48.0,95,80,57,30.14,29.99,1,0,4,0.00
2013-9-30,71.8,61.5,53.2,64.0,58.4,52.0,97,90,72,30.03,29.97,0,0,9,0.01
2013-10-1,77.1,65.6,56.5,66.0,59.7,55.0,97,82,58,30.07,29.98,1,0,5,0.01
2013-10-2,80.8,67.4,57.2,68.0,61.7,56.0,97,83,62,30.08,30.01,3,0,8,0.00
2013-10-3,81.3,67.7,57.9,70.0,63.7,57.0,97,88,67,30.08,29.98,3,0,7,0.06
2013-10-4,82.2,69.9,61.9,70.0,65.6,61.0,98,87,61,30.07,30.00,3,0,7,0.01
2013-10-5,83.4,69.7,63.3,71.0,66.0,63.0,97,89,65,30.06,29.95,4,0,6,0.31
2013-10-6,84.0,73.0,64.0,70.0,65.2,60.0,98,78,55,29.95,29.70,5,1,8,0.00
2013-10-7,71.6,56.0,47.1,62.0,49.2,43.0,95,79,63,30.12,29.67,8,1,15,0.34
2013-10-8,65.1,52.9,40.2,53.0,45.4,39.0,97,78,52,30.31,30.12,4,0,6,0.00
2013-10-9,69.6,53.7,41.3,50.0,44.0,40.0,97,73,42,30.34,30.24,3,0,6,0.00
2013-10-10,71.2,57.5,46.1,51.0,45.3,40.0,86,66,43,30.23,30.09,2,0,5,0.00
2013-10-11,63.1,56.6,51.6,59.0,53.2,48.0,95,88,74,30.09,30.04,3,0,6,0.07
2013-10-12,72.4,62.8,54.8,64.0,57.7,51.0,91,84,73,30.13,30.05,3,0,5,0.01
2013-10-13,71.8,63.1,57.0,63.0,58.5,54.0,93,85,71,30.23,30.13,2,0,3,0.01
2013-10-14,62.7,58.4,55.3,59.0,56.6,54.0,97,93,86,30.29,30.21,4,0,8,0.10
2013-10-15,70.1,60.0,49.8,63.0,56.6,49.0,97,89,76,30.21,29.96,2,0,4,0.00
2013-10-16,62.7,59.2,55.8,61.0,57.2,54.0,96,93,87,29.97,29.85,4,1,9,0.31
2013-10-17,61.5,53.7,48.6,60.0,50.9,47.0,95,90,81,29.90,29.69,7,1,13,0.52
2013-10-18,60.7,50.9,42.3,47.0,43.5,41.0,96,77,53,30.03,29.89,7,1,12,0.01
2013-10-19,54.0,45.7,39.3,47.0,41.9,38.0,95,87,75,29.98,29.75,6,1,14,0.07
2013-10-20,57.3,45.8,37.2,42.0,38.4,36.0,95,77,52,30.05,29.95,13,1,13,0.01
2013-10-21,64.9,51.7,38.1,43.0,38.7,35.0,90,64,38,30.06,29.85,6,1,14,0.00
2013-10-22,56.8,45.6,37.5,47.0,35.7,28.0,94,70,46,29.96,29.83,10,1,11,0.17
2013-10-23,42.2,38.8,35.2,38.0,35.3,32.0,93,87,68,29.95,29.77,5,0,13,0.13
2013-10-24,43.5,37.2,32.2,34.0,31.4,29.0,93,80,58,30.17,29.94,8,1,13,0.01
2013-10-25,47.1,37.7,30.5,35.0,30.6,28.0,94,77,52,30.36,30.17,5,1,10,0.02
2013-10-26,48.7,40.2,29.9,33.0,28.8,26.0,88,66,44,30.27,29.92,11,3,17,0.00
2013-10-27,52.1,41.7,32.2,36.0,32.2,29.0,93,71,47,30.12,30.00,7,1,10,0.00
2013-10-28,58.8,40.4,28.5,42.0,22.0,-99.9,96,63,42,30.31,30.11,2,-85,5,0.00
2013-10-29,59.5,40.5,36.5,43.0,15.7,-99.9,96,59,51,30.38,30.27,1,-166,4,0.00
2013-10-30,63.4,49.0,42.7,54.0,33.8,-99.9,91,71,60,30.26,30.09,1,-86,2,0.00
2013-10-31,67.1,61.2,56.5,59.0,56.8,54.0,95,85,67,30.08,29.44,10,2,13,0.18
2013-11-1,67.6,57.9,52.2,59.0,48.5,43.0,93,72,56,29.68,29.32,12,4,28,0.16
2013-11-2,53.9,47.8,42.6,45.0,42.3,40.0,93,82,70,29.96,29.64,12,3,14,0.04
2013-11-3,47.6,40.3,31.1,41.0,33.5,24.0,94,77,55,30.47,29.96,5,1,8,0.00
2013-11-4,45.8,36.1,25.8,28.0,25.1,22.0,86,66,44,30.56,30.45,3,0,5,0.00
2013-11-5,58.6,46.4,36.7,38.0,32.4,28.0,73,59,44,30.52,30.34,3,0,6,0.00
2013-11-6,70.1,56.9,41.0,56.0,46.3,30.0,94,69,54,30.34,29.92,8,2,17,0.09
2013-11-7,56.7,44.1,37.9,56.0,38.0,26.0,96,80,58,30.13,29.85,11,4,21,0.70
2013-11-8,42.4,36.4,26.2,31.0,27.5,23.0,86,71,52,30.31,30.09,11,3,15,0.00
2013-11-9,56.3,42.4,25.6,33.0,26.8,22.0,91,59,31,30.31,29.98,14,3,20,0.00
2013-11-10,52.2,43.8,36.5,37.0,32.2,28.0,76,64,47,30.28,29.98,18,7,24,0.00
2013-11-11,47.7,39.9,31.3,38.0,30.7,28.0,92,71,49,30.29,30.05,9,3,17,0.01
2013-11-12,33.3,24.4,25.7,31.0,3.4,-99.9,95,68,63,30.51,30.13,9,-166,15,0.03
2013-11-13,34.4,28.5,22.8,23.0,21.2,20.0,89,75,57,30.57,30.41,9,3,14,0.00
2013-11-14,48.1,34.1,26.7,24.0,11.5,-99.9,77,51,36,30.41,30.20,10,-81,16,0.00
2013-11-15,53.9,39.3,35.5,37.0,5.6,-99.9,60,39,30,30.23,30.13,11,-168,16,0.00
2013-11-16,59.3,45.5,40.4,50.0,25.7,-99.9,93,67,61,30.23,30.02,4,-136,11,0.00
2013-11-17,60.7,52.8,52.8,59.0,42.2,-99.9,95,82,62,30.01,29.52,10,-71,28,0.67
2013-11-18,58.8,47.3,37.6,47.0,35.1,27.0,80,63,49,30.06,29.60,19,9,34,0.00
2013-11-19,37.4,34.1,27.2,27.0,25.0,21.0,79,69,61,30.43,30.06,10,3,19,0.00
2013-11-20,46.8,33.6,24.5,25.0,13.3,-99.9,86,54,29,30.50,30.38,6,-51,10,0.00
2013-11-21,54.6,40.0,32.9,41.0,16.4,-99.9,70,53,51,30.44,30.23,7,-115,7,0.00
2013-11-22,52.3,42.5,35.5,51.0,28.2,-99.9,96,79,70,30.25,30.05,11,-115,19,0.14
2013-11-23,35.5,29.8,18.7,32.0,23.5,10.0,91,78,56,30.38,30.16,17,6,24,0.00
2013-11-24,22.7,17.7,13.0,15.0,10.9,6.0,85,74,61,30.59,30.38,17,6,33,0.00
2013-11-25,36.4,24.9,12.6,24.0,11.6,7.0,79,59,39,30.55,30.27,9,2,17,0.00
2013-11-26,34.4,32.0,30.6,33.0,30.3,24.0,96,94,65,30.27,29.76,8,1,13,0.16
2013-11-27,31.8,27.3,21.5,31.0,24.1,16.0,96,88,76,30.16,29.75,14,6,21,0.00
2013-11-28,28.0,23.4,16.3,22.0,17.1,11.0,85,77,67,30.46,30.17,10,3,15,0.00
2013-11-29,35.6,27.6,20.1,24.0,20.8,17.0,91,76,56,30.68,30.46,4,0,6,0.00
2013-11-30,38.2,30.3,22.2,27.0,22.7,18.0,85,74,61,30.65,30.25,5,1,9,0.03
2013-12-1,43.2,38.7,32.2,31.0,29.0,26.0,78,69,60,30.25,29.99,9,2,11,0.14
2013-12-2,46.6,40.1,36.7,37.0,33.3,30.0,90,77,67,29.99,29.84,3,0,7,0.01
2013-12-3,53.4,41.9,35.1,44.0,37.9,33.0,95,86,68,29.93,29.86,4,0,6,0.02
2013-12-4,57.4,48.2,38.7,49.0,42.9,36.0,91,82,72,29.99,29.87,3,0,4,0.00
2013-12-5,60.7,54.8,38.8,58.0,51.2,37.0,96,88,77,30.04,29.84,10,3,19,0.80
2013-12-6,37.8,32.2,27.5,36.0,30.6,26.0,95,93,90,30.31,30.02,8,2,11,0.28
2013-12-7,29.4,24.9,15.4,26.0,20.1,12.0,94,82,67,30.63,30.29,6,2,12,0.00
2013-12-8,29.8,23.1,14.9,29.0,19.7,12.0,95,87,78,30.62,30.11,4,1,7,0.00
2013-12-9,36.9,33.0,28.4,36.0,30.1,23.0,97,89,78,30.17,30.00,15,5,23,0.28
2013-12-10,28.2,25.0,21.2,23.0,17.6,10.0,92,74,50,30.30,30.07,16,5,21,0.00
2013-12-11,29.2,23.1,16.7,22.0,14.8,12.0,89,71,59,30.41,30.27,10,5,18,0.00
2013-12-12,21.1,17.1,8.6,14.0,6.6,3.0,84,65,47,30.52,30.31,19,6,19,0.00
2013-12-13,34.3,25.7,19.7,20.0,13.6,6.0,71,60,52,30.31,30.24,11,4,16,0.00
2013-12-14,36.2,31.5,27.7,35.0,27.5,20.0,96,85,70,30.27,29.68,3,0,5,0.45
2013-12-15,37.9,28.4,20.1,37.0,24.1,11.0,96,84,65,30.06,29.65,16,8,26,0.10
2013-12-16,24.4,21.3,18.1,21.0,16.0,12.0,88,80,71,30.21,30.06,8,2,12,0.00
2013-12-17,33.3,29.4,24.0,31.0,25.9,21.0,94,87,75,30.08,29.98,12,3,16,0.00
2013-12-18,28.4,25.8,21.7,23.0,20.8,17.0,88,81,70,30.23,30.07,14,4,18,0.00
2013-12-19,50.7,41.1,25.9,36.0,28.0,20.0,80,60,51,30.14,30.04,12,3,19,0.01
2013-12-20,56.3,50.6,44.2,51.0,39.8,28.0,92,68,48,30.03,29.88,12,4,16,0.04
2013-12-21,60.2,57.9,55.7,59.0,55.2,51.0,95,91,81,29.88,29.61,11,3,15,0.78
2013-12-22,68.7,58.9,52.4,60.0,54.8,47.0,97,86,74,29.92,29.52,15,6,47,0.19
2013-12-23,52.0,37.3,29.5,47.0,33.2,21.0,95,85,69,30.30,29.93,11,4,19,0.06
2013-12-24,29.6,21.3,11.5,23.0,14.1,7.0,90,74,56,30.57,30.25,14,5,23,0.00
2013-12-25,25.9,18.3,8.1,23.0,13.0,5.0,92,80,66,30.56,30.28,3,1,8,0.00
2013-12-26,34.7,29.5,22.7,27.0,22.6,16.0,94,77,56,30.38,30.18,14,4,23,0.00
2013-12-27,40.9,33.2,22.7,29.0,23.3,16.0,78,68,57,30.40,30.29,10,3,16,0.01
2013-12-28,49.3,41.7,36.4,32.0,27.6,23.0,64,58,51,30.29,30.07,14,5,20,0.00
2013-12-29,43.2,40.6,37.9,40.0,35.0,25.0,96,82,50,30.06,29.68,11,3,20,0.63
2013-12-30,39.5,25.6,20.4,37.0,21.3,12.0,92,84,66,30.21,29.85,11,3,20,0.00
2013-12-31,24.3,22.7,20.9,20.0,17.6,14.0,89,80,69,30.36,30.11,14,5,23,0.00
2014-1-1,37.1,28.8,24.1,27.0,22.9,19.0,84,79,66,30.37,30.09,6,1,9,0.00
2014-1-2,29.2,23.0,10.6,27.0,20.4,8.0,92,89,84,30.09,29.72,11,2,20,0.00